Location: Shepherdstown, WV
(39.4326°N, 77.8042°W)
Time: 04:55:44
(UTC-04:00)

SR - Pass Details

Date: 02 August 2021
Orbit: 581 x 874 km, 66.7° (Epoch: 24 September)

Event Time Altitude Azimuth Distance (km) Brightness Sun altitude
Rises 14:14:54 0° 346° (NNW) 3,115 ? 64.8°
Reaches altitude 10° 14:18:40 10° 14° (NNE) 2,117 ? 64.4°
Maximum altitude 14:20:50 13° 41° (NE) 1,882 ? 64.2°
Drops below altitude 10° 14:22:57 10° 69° (ENE) 2,035 ? 63.9°
Sets 14:26:24 0° 98° (E) 2,883 ? 63.5°
